This is the latest recevied weather packets stored in our database for station/object KM4KBD. If no packets are shown the sender has not sent any weather packets the latest 10 day(s).
| Time | Temp. | Humidity | Pressure | Rain* | Wind** | Luminosity | Snow |
|---|---|---|---|---|---|---|---|
| 1777813167 | 6.67° C | 75% | 1027.2 hPa | 0 mm | - | 48 W/m² | - |
| 1777812865 | 6.67° C | 76% | 1027.1 hPa | 0 mm | - | 47 W/m² | - |
| 1777812561 | 6.11° C | 79% | 1027.3 hPa | 0 mm | - | 45 W/m² | - |
| 1777812259 | 5.56° C | 82% | 1027.3 hPa | 0 mm | - | 45 W/m² | - |
| 1777811957 | 5° C | 82% | 1027.1 hPa | 0 mm | - | 43 W/m² | - |
| 1777811656 | 5° C | 83% | 1027.2 hPa | 0 mm | - | 42 W/m² | - |
| 1777811356 | 3.89° C | 86% | 1027.4 hPa | 0 mm | - | 49 W/m² | - |
| 1777811054 | 3.89° C | 88% | 1027.4 hPa | 0 mm | - | 40 W/m² | - |
| 1777810751 | 3.33° C | 88% | 1027 hPa | 0 mm | - | 41 W/m² | - |
| 1777810448 | 2.78° C | 89% | 1027.1 hPa | 0 mm | - | 37 W/m² | - |
| 1777810143 | 2.78° C | 90% | 1027.1 hPa | 0 mm | - | 36 W/m² | - |
| 1777809841 | 2.78° C | 90% | 1026.9 hPa | 0 mm | - | 35 W/m² | - |
| 1777809538 | 2.22° C | 91% | 1027.1 hPa | 0 mm | - | 34 W/m² | - |
| 1777809236 | 1.67° C | 91% | 1026.8 hPa | 0 mm | - | 32 W/m² | - |
| 1777808934 | 1.67° C | 93% | 1026.9 hPa | 0 mm | - | 31 W/m² | - |
| 1777808630 | 1.67° C | 94% | 1026.8 hPa | 0 mm | - | 30 W/m² | - |
| 1777808327 | 1.11° C | 94% | 1026.5 hPa | 0 mm | - | 28 W/m² | - |
| 1777808026 | 1.11° C | 95% | 1026.4 hPa | 0 mm | - | 26 W/m² | - |
| 1777807722 | 1.11° C | 95% | 1026.4 hPa | 0 mm | - | 25 W/m² | - |
| 1777807421 | 0.56° C | 96% | 1026.6 hPa | 0 mm | - | 23 W/m² | - |
| 1777807122 | 1.11° C | 96% | 1026.6 hPa | 0 mm | - | 21 W/m² | - |
| 1777806820 | 1.11° C | 96% | 1026.5 hPa | 0 mm | - | 19 W/m² | - |
| 1777806515 | 1.11° C | 96% | 1026.2 hPa | 0 mm | - | 16 W/m² | - |
| 1777806212 | 0.56° C | 97% | 1026.3 hPa | 0 mm | - | 13 W/m² | - |
| 1777805908 | 0.56° C | 97% | 1026.4 hPa | 0 mm | - | 11 W/m² | - |
* Rain latest hour (hover to see other rain measurements)
** Current wind speed in m/s (hover to see current wind gust speed)